FW2270 Weather Reports


Display with metric or nautical units.
time (UTC)temp
F
wind
direction
speed
MPH
gust
MPH
rain 1hr
in
rain 24hr
in
rain mn
in
humidity
%
barometer
mb
20260507095413 52 295 0.0 3.0 0.00 0.00 0.00 96 1020.3
20260507094447 52 279 0.0 5.0 0.00 0.00 0.00 96 1020.4
20260507093440 52 241 0.0 2.0 0.00 0.00 0.00 96 1020.3
20260507092416 52 309 0.0 1.0 0.00 0.00 0.00 96 1020.3
20260507091428 52 315 2.0 4.0 0.00 0.00 0.00 96 1020.4
20260507090441 52 299 0.0 4.0 0.00 0.00 0.00 95 1020.5
20260507085451 52 285 0.0 2.0 0.00 0.00 0.00 96 1020.4
20260507084427 52 285 0.0 1.0 0.00 0.00 0.00 96 1020.5
20260507083420 52 284 0.0 5.0 0.00 0.00 0.00 96 1020.5
20260507082454 52 317 1.0 4.0 0.00 0.00 0.00 96 1020.4
20260507081427 52 272 0.0 1.0 0.00 0.00 0.00 96 1020.5
20260507080446 52 118 1.0 3.0 0.00 0.00 0.00 96 1020.6
20260507075437 52 265 0.0 2.0 0.00 0.00 0.00 96 1020.5
20260507074430 52 322 0.0 4.0 0.00 0.00 0.00 96 1020.5
20260507073424 52 293 0.0 6.0 0.00 0.00 0.00 96 1020.6
20260507072422 52 289 0.0 4.0 0.00 0.00 0.00 96 1020.6
20260507071453 52 287 0.0 3.0 0.00 0.00 0.00 96 1020.4
20260507070424 52 287 0.0 4.0 0.00 0.00 0.00 96 1020.5
20260507065422 52 299 1.0 5.0 0.00 0.00 0.00 95 1020.4
20260507064416 52 311 0.0 4.0 0.00 0.00 0.00 95 1020.4
20260507063430 52 293 1.0 4.0 0.00 0.00 0.00 95 1020.5
20260507062425 52 312 2.0 6.0 0.00 0.00 0.00 95 1020.4
20260507061423 52 277 0.0 3.0 0.00 0.00 0.00 95 1020.4
20260507060418 52 300 0.0 5.0 0.00 0.00 0.00 95 1020.4
20260507055430 52 289 0.0 3.0 0.00 0.00 0.00 96 1020.3
20260507054428 52 326 1.0 3.0 0.00 0.00 0.00 96 1020.2
20260507053424 52 309 1.0 4.0 0.00 0.00 0.00 95 1020.2
20260507052417 52 298 0.0 3.0 0.00 0.00 0.00 95 1020.2
20260507051432 52 279 0.0 5.0 0.00 0.00 0.00 95 1020.3
20260507050429 52 272 1.0 7.0 0.00 0.00 0.00 95 1020.2
20260507045422 52 263 3.0 7.0 0.00 0.00 0.00 95 1020.3
20260507044415 52 275 3.0 7.0 0.00 0.00 0.00 95 1020.2
20260507043413 52 291 0.0 5.0 0.00 0.00 0.00 95 1020.2
20260507042427 52 279 0.0 3.0 0.00 0.00 0.00 95 1020.1
20260507041420 53 308 1.0 3.0 0.00 0.00 0.00 95 1019.9
20260507040435 53 287 1.0 9.0 0.00 0.00 0.00 95 1020.0
20260507035431 53 275 1.0 10.0 0.00 0.00 0.00 95 1020.0
20260507034444 53 286 4.0 8.0 0.00 0.00 0.00 95 1020.0
20260507033417 53 290 2.0 5.0 0.00 0.00 0.00 94 1020.0
20260507032432 54 289 1.0 4.0 0.00 0.00 0.00 94 1020.2
20260507031428 54 290 1.0 4.0 0.00 0.00 0.00 93 1020.0
20260507030423 55 281 2.0 6.0 0.00 0.00 0.00 93 1020.2
20260507025416 56 322 1.0 4.0 0.00 0.00 0.00 91 1020.1
20260507024448 57 295 0.0 4.0 0.00 0.00 0.00 89 1020.0
20260507023426 58 293 0.0 5.0 0.00 0.00 0.00 88 1019.9
20260507022420 58 319 1.0 8.0 0.00 0.00 0.00 88 1019.8
20260507021414 59 341 1.0 8.0 0.00 0.00 0.00 87 1020.0
20260507020428 59 267 2.0 6.0 0.00 0.00 0.00 87 1019.9
20260507015423 60 256 2.0 9.0 0.00 0.00 0.00 86 1020.0
20260507014435 60 298 4.0 9.0 0.00 0.00 0.00 86 1020.1
20260507013427 60 271 5.0 13.0 0.00 0.00 0.00 85 1020.2
20260507012424 61 272 3.0 10.0 0.00 0.00 0.00 86 1020.2
20260507011417 61 301 4.0 8.0 0.00 0.00 0.00 84 1020.3
20260507010431 62 300 2.0 7.0 0.00 0.00 0.00 84 1020.3
20260507005423 62 311 3.0 9.0 0.00 0.00 0.00 85 1020.4
20260507004439 62 262 4.0 8.0 0.00 0.00 0.00 84 1020.2
20260507003431 62 265 5.0 9.0 0.00 0.00 0.00 84 1020.1
20260507002424 62 291 4.0 14.0 0.00 0.00 0.00 84 1020.1
20260507001418 63 187 4.0 11.0 0.00 0.00 0.00 85 1020.2
20260507000436 62 294 5.0 11.0 0.00 0.00 0.00 84 1020.2
20260506235428 63 283 3.0 14.0 0.00 0.00 0.00 83 1020.3
20260506234423 63 299 3.0 8.0 0.00 0.00 0.00 85 1020.2
20260506233422 63 334 5.0 11.0 0.00 0.00 0.00 84 1020.2
20260506232415 63 317 5.0 11.0 0.00 0.00 0.00 85 1020.2
20260506231430 63 321 5.0 13.0 0.00 0.00 0.00 83 1020.3
20260506230424 63 336 7.0 14.0 0.00 0.00 0.00 83 1020.3
20260506225420 63 311 5.0 12.0 0.00 0.00 0.00 83 1020.4
20260506224413 63 291 4.0 12.0 0.00 0.00 0.00 84 1020.5
20260506223449 63 285 6.0 14.0 0.00 0.00 0.00 84 1020.6
20260506222421 63 308 6.0 14.0 0.00 0.00 0.00 84 1020.9
20260506221418 64 315 7.0 11.0 0.00 0.00 0.00 82 1020.7
20260506220412 64 261 7.0 13.0 0.00 0.00 0.00 83 1020.9
20260506215425 64 277 3.0 12.0 0.00 0.00 0.00 84 1021.0
20260506214424 64 305 3.0 12.0 0.00 0.00 0.00 85 1021.0
20260506213418 64 261 5.0 14.0 0.00 0.00 0.00 84 1021.2
20260506212432 64 312 6.0 13.0 0.00 0.00 0.00 83 1021.1
20260506211425 65 259 3.0 10.0 0.00 0.00 0.00 83 1021.3
20260506210423 65 295 4.0 12.0 0.00 0.00 0.00 84 1021.2
20260506205413 65 282 5.0 9.0 0.00 0.00 0.00 83 1021.3
20260506204426 66 288 3.0 10.0 0.00 0.00 0.00 84 1021.3
20260506203425 66 284 3.0 9.0 0.00 0.00 0.00 83 1021.4
20260506202441 65 319 4.0 9.0 0.00 0.00 0.00 82 1021.3
20260506201432 66 298 3.0 8.0 0.00 0.00 0.00 84 1021.4
20260506200423 66 312 2.0 10.0 0.00 0.00 0.00 84 1021.4
20260506195419 65 292 5.0 10.0 0.00 0.00 0.00 83 1021.6
20260506194431 65 282 3.0 10.0 0.00 0.00 0.00 85 1021.7
20260506193445 65 317 5.0 11.0 0.00 0.00 0.00 83 1021.8
20260506192415 66 286 3.0 9.0 0.00 0.00 0.00 82 1021.8
20260506105415 53 309 0.0 0.0 0.00 0.00 0.00 95 1020.7
20260506104430 53 309 0.0 1.0 0.00 0.00 0.00 95 1020.5
20260506103423 53 309 0.0 0.0 0.00 0.00 0.00 95 1020.4
20260506102417 53 309 0.0 1.0 0.00 0.00 0.00 95 1020.4
20260506101413 53 309 0.0 0.0 0.00 0.00 0.00 95 1020.3
20260506100428 53 309 0.0 0.0 0.00 0.00 0.00 95 1020.4